Temp
-14 -14 -14 -14 -14 -14 -14 -14 -14 -14 -15 -15 -15 -15 -15 -16 -16 -16 -16 -16 -15 -15 -15 -14 -14 -14 -14 -14 -13 -12 -13 -13
-14 -14 -14 -14 -14 -14 -15 -15 -15 -16 -16 -16 -16 -16 -17 -16 -16 -16 -16 -16 -16 -16 -15 -15 -15 -15 -14 -14 -14 -13 -13 -13
-15 -15 -15 -15 -15 -15 -15 -16 -17 -17 -17 -17 -17 -17 -17 -17 -17 -17 -17 -16 -16 -16 -16 -15 -15 -15 -15 -15 -14 -14 -13 -14
-15 -15 -15 -16 -16 -16 -17 -17 -18 -18 -17 -18 -17 -17 -17 -17 -18 -18 -17 -17 -17 -16 -16 -16 -16 -16 -16 -16 -16 -16 -15 -14
-16 -16 -17 -17 -17 -18 -18 -18 -18 -18 -18 -18 -18 -18 -18 -18 -18 -17 -17 -17 -17 -16 -16 -17 -16 -16 -16 -16 -16 -15 -15 -15
-17 -18 -18 -18 -19 -19 -19 -18 -19 -18 -18 -18 -18 -18 -18 -18 -18 -17 -17 -17 -17 -17 -17 -16 -17 -16 -16 -16 -16 -16 -15 -15
-18 -19 -19 -19 -20 -20 -19 -19 -19 -18 -18 -19 -19 -18 -19 -18 -18 -17 -17 -17 -17 -17 -17 -17 -16 -16 -16 -16 -16 -16 -16 -16
-19 -20 -19 -20 -20 -20 -20 -19 -19 -19 -19 -18 -19 -19 -19 -18 -18 -17 -18 -17 -17 -17 -17 -16 -16 -16 -16 -16 -16 -16 -16 -16
-20 -20 -20 -20 -21 -21 -20 -20 -19 -19 -19 -19 -19 -19 -18 -18 -18 -18 -18 -18 -17 -17 -16 -16 -16 -16 -15 -16 -16 -16 -16 -16
-20 -20 -21 -21 -21 -21 -20 -20 -19 -19 -19 -20 -20 -19 -18 -18 -18 -18 -18 -17 -17 -17 -17 -17 -17 -17 -17 -17 -17 -17 -16 -16
-20 -20 -21 -21 -21 -21 -20 -20 -19 -18 -19 -20 -20 -19 -18 -18 -18 -18 -18 -17 -17 -17 -17 -18 -18 -18 -18 -17 -18 -17 -17 -16
-21 -21 -21 -21 -21 -21 -20 -19 -19 -19 -20 -20 -20 -19 -19 -18 -18 -18 -17 -18 -17 -17 -17 -18 -18 -18 -19 -21 -20 -19 -18 -17
-21 -21 -21 -21 -21 -21 -20 -19 -19 -19 -20 -20 -20 -19 -19 -19 -18 -19 -19 -18 -18 -17 -18 -18 -19 -19 -20 -21 -21 -20 -19 -18
-21 -21 -21 -21 -21 -21 -20 -20 -20 -19 -20 -20 -20 -19 -19 -19 -19 -19 -20 -19 -18 -18 -18 -19 -19 -20 -20 -21 -21 -21 -20 -19
-21 -21 -21 -22 -21 -21 -20 -20 -20 -20 -20 -20 -20 -20 -20 -20 -20 -20 -20 -20 -20 -19 -19 -19 -20 -20 -20 -20 -21 -20 -20 -19
-22 -22 -22 -22 -22 -21 -21 -20 -20 -20 -20 -20 -20 -20 -20 -21 -21 -21 -21 -21 -21 -21 -19 -19 -20 -20 -20 -20 -21 -20 -19 -19
-22 -22 -23 -23 -22 -21 -21 -21 -21 -21 -20 -20 -20 -21 -21 -21 -22 -22 -22 -21 -21 -21 -22 -21 -21 -20 -20 -20 -20 -20 -20 -19
-23 -23 -23 -23 -22 -22 -21 -21 -21 -21 -21 -21 -21 -21 -22 -22 -23 -22 -22 -22 -22 -22 -22 -21 -21 -21 -20 -20 -20 -20 -20 -19
-23 -24 -24 -23 -22 -22 -21 -21 -21 -21 -21 -22 -22 -23 -23 -23 -24 -23 -23 -23 -22 -23 -23 -22 -22 -21 -21 -21 -20 -20 -20 -19
Height
5738 5735 5731 5727 5724 5721 5717 5713 5710 5706 5703 5699 5695 5692 5688 5685 5682 5680 5678 5677 5676 5676 5677 5677 5676 5678 5680 5683 5686 5689 5694 5699
5726 5722 5719 5715 5711 5707 5702 5698 5695 5691 5688 5685 5681 5678 5674 5670 5667 5664 5662 5660 5658 5658 5658 5659 5658 5660 5661 5665 5668 5672 5676 5682
5714 5711 5707 5703 5699 5693 5689 5685 5682 5678 5675 5671 5668 5664 5660 5656 5652 5648 5645 5643 5641 5639 5639 5639 5640 5641 5643 5646 5649 5653 5658 5662
5704 5700 5695 5690 5686 5682 5678 5674 5670 5667 5663 5659 5656 5651 5647 5644 5640 5635 5630 5627 5626 5625 5625 5624 5625 5626 5628 5630 5632 5636 5640 5645
5692 5688 5683 5679 5675 5671 5667 5663 5660 5657 5653 5648 5645 5642 5638 5634 5629 5624 5619 5615 5613 5612 5610 5609 5610 5610 5613 5616 5618 5622 5625 5631
5681 5677 5673 5670 5666 5662 5658 5655 5651 5647 5643 5640 5636 5633 5628 5623 5616 5611 5607 5603 5601 5598 5598 5597 5596 5596 5598 5600 5602 5606 5609 5614
5672 5668 5665 5661 5658 5654 5650 5646 5642 5638 5634 5631 5628 5625 5621 5616 5608 5600 5595 5591 5590 5588 5587 5585 5584 5584 5584 5585 5586 5589 5594 5598
5663 5660 5657 5652 5649 5645 5641 5637 5633 5630 5627 5624 5621 5617 5612 5607 5600 5593 5588 5582 5577 5575 5574 5573 5572 5571 5569 5568 5569 5572 5577 5583
5655 5652 5648 5644 5639 5636 5633 5630 5626 5623 5620 5618 5614 5610 5603 5599 5592 5585 5579 5573 5569 5566 5562 5559 5557 5556 5553 5553 5553 5556 5561 5568
5648 5644 5640 5636 5633 5629 5626 5623 5620 5617 5614 5611 5607 5601 5596 5591 5585 5578 5571 5565 5561 5556 5552 5548 5544 5539 5537 5534 5535 5540 5545 5552
5640 5636 5632 5629 5626 5623 5620 5617 5614 5612 5609 5605 5600 5595 5589 5583 5577 5571 5565 5559 5553 5549 5540 5537 5531 5525 5519 5515 5516 5520 5526 5536
5631 5628 5625 5622 5620 5616 5613 5610 5608 5606 5603 5599 5594 5589 5584 5577 5570 5563 5557 5552 5545 5538 5531 5526 5519 5511 5500 5495 5495 5500 5508 5520
5623 5619 5616 5614 5612 5609 5606 5604 5602 5600 5597 5592 5587 5583 5578 5572 5566 5558 5549 5543 5540 5532 5525 5520 5512 5501 5495 5487 5483 5487 5498 5509
5613 5610 5606 5604 5604 5602 5599 5597 5595 5593 5591 5586 5581 5577 5572 5567 5561 5555 5548 5540 5535 5531 5523 5516 5508 5498 5490 5486 5483 5485 5494 5502
5603 5600 5597 5595 5595 5594 5592 5590 5588 5586 5583 5579 5575 5570 5566 5561 5557 5551 5546 5540 5532 5527 5521 5514 5508 5500 5493 5486 5485 5488 5493 5499
5593 5591 5589 5587 5587 5586 5585 5583 5580 5578 5575 5572 5568 5564 5560 5556 5552 5548 5543 5538 5533 5525 5519 5513 5508 5503 5498 5494 5490 5491 5495 5500
5585 5583 5582 5580 5580 5579 5577 5575 5573 5570 5567 5563 5560 5556 5553 5550 5547 5543 5540 5535 5531 5526 5518 5513 5508 5505 5501 5498 5496 5495 5495 5499
5578 5577 5575 5573 5573 5571 5569 5567 5565 5561 5558 5554 5551 5548 5545 5543 5541 5538 5535 5532 5528 5524 5519 5514 5509 5505 5502 5499 5498 5499 5499 5500
5570 5569 5568 5567 5565 5564 5562 5559 5556 5552 5549 5545 5542 5539 5538 5535 5533 5532 5530 5528 5526 5522 5518 5514 5509 5504 5501 5499 5496 5496 5496 5496
Wind_Speed
54 54 55 56 55 56 56 56 57 57 56 55 55 55 56 57 59 59 60 60 60 62 63 65 67 67 67 68 70 72 65 62
53 54 55 55 56 56 57 57 55 52 50 50 51 53 54 55 56 56 56 55 56 57 59 61 62 65 65 66 67 68 69 65
53 53 54 54 55 55 51 50 48 47 48 48 48 49 51 53 54 52 52 54 57 56 51 53 55 55 58 65 66 64 66 67
49 49 49 49 49 48 46 44 44 44 47 47 47 48 50 51 52 51 48 51 48 48 49 53 54 54 54 52 54 58 60 61
44 45 45 45 45 43 40 41 42 43 41 41 46 48 45 47 51 47 47 47 47 45 46 45 45 45 46 47 48 50 55 58
39 40 40 41 39 38 40 39 37 39 42 42 41 41 40 41 45 42 39 38 36 35 37 39 41 44 46 52 52 50 53 56
36 37 37 37 37 38 38 39 38 37 37 37 37 35 35 34 37 38 37 37 38 38 39 37 39 42 46 53 58 57 50 54
35 34 35 37 36 37 40 37 37 34 33 34 34 34 34 35 34 34 35 39 39 39 38 38 39 41 42 48 56 59 55 52
33 35 34 32 31 33 35 36 33 32 34 39 34 32 35 32 33 36 34 33 32 33 32 34 36 37 40 48 49 52 54 53
34 34 32 29 31 31 34 32 29 32 39 36 33 29 33 36 35 35 34 28 28 31 37 37 34 40 44 47 54 53 56 59
34 34 32 31 31 32 34 31 29 36 39 34 31 30 34 40 40 36 34 33 33 36 34 30 38 42 47 53 57 58 57 60
32 32 32 34 31 31 31 27 29 34 35 31 28 28 32 39 42 45 38 40 40 42 26 31 34 41 42 31 37 50 51 53
34 34 36 34 32 32 29 25 27 30 32 31 28 28 30 34 41 43 48 46 42 31 25 25 29 29 22 24 28 35 39 43
37 38 37 33 32 30 27 25 26 28 29 29 29 29 30 33 36 40 41 43 42 29 20 18 26 20 15 15 10 17 24 33
35 37 35 30 29 28 26 26 27 27 26 27 27 30 31 33 35 36 38 33 40 34 24 27 24 17 11 7 10 16 23 29
32 32 30 26 25 25 25 26 26 26 27 27 28 30 31 32 33 32 32 27 22 27 22 24 21 11 10 4 8 11 18 22
30 27 27 22 24 25 26 27 27 28 29 30 32 32 32 32 30 28 27 22 20 17 18 15 20 17 11 6 2 7 16 18
29 30 27 22 24 26 27 27 29 31 33 33 33 33 33 32 29 26 24 22 19 21 17 12 8 9 11 10 8 5 9 16
30 27 26 25 25 26 28 30 33 34 34 34 34 34 34 31 29 27 26 23 21 19 17 17 14 7 7 10 10 8 13 16
Wind_Direction
285 285 285 285 285 286 286 286 286 286 286 286 286 283 280 277 276 275 274 272 270 266 263 261 263 263 261 260 259 261 261 258
287 287 288 290 290 291 290 291 289 289 288 288 287 284 283 283 282 282 281 278 274 270 267 263 262 263 263 262 258 257 259 256
291 292 293 293 293 292 291 291 293 293 292 289 287 287 288 286 284 281 281 280 276 272 269 266 263 260 257 253 252 251 252 253
292 293 293 292 292 293 294 296 294 295 296 292 290 289 289 286 287 289 285 280 276 271 272 267 263 261 260 255 253 252 249 248
294 294 294 293 293 293 296 293 295 295 296 293 290 290 290 293 292 291 289 284 282 277 280 270 269 263 257 254 253 251 253 252
298 296 295 294 294 292 288 293 294 291 295 293 290 294 300 303 304 307 298 291 289 286 284 278 272 267 263 260 259 254 251 248
297 295 293 292 289 286 290 292 300 296 291 291 298 299 303 311 317 309 304 295 288 283 288 282 278 265 263 260 258 256 253 246
290 287 293 294 285 285 293 299 300 292 294 296 293 302 306 312 322 318 306 302 292 290 285 281 279 280 272 258 257 248 249 248
290 295 294 297 291 292 296 300 294 295 294 291 298 310 320 320 325 328 319 304 300 301 300 289 280 272 273 261 248 243 243 241
292 297 290 295 296 297 298 296 294 293 294 289 294 313 322 330 330 335 329 315 308 321 312 292 286 277 270 265 254 242 236 236
292 293 285 291 293 293 296 293 298 286 289 288 299 316 328 333 334 332 339 327 322 316 311 300 298 276 284 268 257 248 243 237
293 292 284 288 287 293 291 291 286 285 282 285 301 315 326 330 334 336 333 341 333 333 316 313 317 311 296 292 261 241 238 233
289 289 282 282 281 292 286 287 285 286 288 289 298 309 319 327 330 334 334 337 343 339 327 332 317 300 294 282 270 234 235 222
283 287 282 276 275 288 284 284 287 288 288 293 297 302 312 319 325 328 330 332 334 338 341 340 351 320 293 321 284 203 209 214
280 284 281 271 272 283 283 285 286 286 292 292 298 301 303 309 317 319 324 329 326 332 323 329 331 352 322 234 236 187 200 208
281 280 281 269 276 281 284 287 288 288 293 299 301 299 298 301 306 310 316 327 327 345 336 331 319 342 353 328 152 168 180 192
278 280 277 278 284 283 285 287 290 291 297 300 302 297 295 294 298 300 309 315 324 346 355 338 320 308 327 5 286 187 177 187
276 274 282 283 286 287 288 289 292 296 298 297 297 296 293 291 290 288 292 302 312 323 343 6 287 299 281 282 263 240 219 215
274 278 284 284 285 289 290 293 295 295 296 296 297 296 291 290 288 283 281 285 292 307 321 332 3 67 158 150 143 179 263 253